This is the latest recevied weather packets stored in our database for station/object W9PEM-13. If no packets are shown the sender has not sent any weather packets the latest 10 day(s).
| Time | Temp. | Humidity | Pressure | Rain* | Wind** | Luminosity | Snow |
|---|---|---|---|---|---|---|---|
| 1778103959 | 10.56° C | 45% | 982 hPa | 0 mm | - | 78 W/m² | - |
| 1778103399 | 10.56° C | 44% | 982 hPa | 0 mm | - | 148 W/m² | - |
| 1778103359 | 10.56° C | 44% | 982 hPa | 0 mm | - | 148 W/m² | - |
| 1778102802 | 10.56° C | 44% | 981.9 hPa | 0 mm | - | 123 W/m² | - |
| 1778102759 | 10.56° C | 44% | 981.9 hPa | 0 mm | - | 123 W/m² | - |
| 1778102160 | 10.56° C | 42% | 981.9 hPa | 0 mm | - | 123 W/m² | - |
| 1778101672 | 11.11° C | 42% | 981.9 hPa | 0 mm | - | 146 W/m² | - |
| 1778101559 | 11.11° C | 42% | 981.9 hPa | 0 mm | - | 146 W/m² | - |
| 1778101055 | 11.11° C | 41% | 981.9 hPa | 0 mm | - | 291 W/m² | - |
| 1778100504 | 11.11° C | 42% | 982 hPa | 0 mm | - | 256 W/m² | - |
| 1778100359 | 11.11° C | 42% | 982 hPa | 0 mm | - | 256 W/m² | - |
| 1778099908 | 10.56° C | 42% | 982 hPa | 0 mm | - | 288 W/m² | - |
| 1778099850 | 10.56° C | 42% | 982 hPa | 0 mm | - | 288 W/m² | - |
| 1778099759 | 10.56° C | 42% | 982 hPa | 0 mm | - | 288 W/m² | - |
| 1778099308 | 10.56° C | 43% | 982.2 hPa | 0 mm | - | 220 W/m² | - |
| 1778099249 | 10.56° C | 43% | 982.2 hPa | 0 mm | - | 220 W/m² | - |
| 1778099160 | 10.56° C | 43% | 982.2 hPa | 0 mm | - | 220 W/m² | - |
| 1778098650 | 10.56° C | 44% | 982.2 hPa | 0 mm | - | 151 W/m² | - |
| 1778098559 | 10.56° C | 44% | 982.2 hPa | 0 mm | - | 151 W/m² | - |
| 1778098050 | 11.11° C | 43% | 982.3 hPa | 0 mm | - | 286 W/m² | - |
| 1778097960 | 11.11° C | 43% | 982.3 hPa | 0 mm | - | 286 W/m² | - |
| 1778097392 | 11.11° C | 43% | 982.3 hPa | 0 mm | - | 276 W/m² | - |
| 1778097359 | 11.11° C | 43% | 982.3 hPa | 0 mm | - | 276 W/m² | - |
| 1778096907 | 11.11° C | 43% | 982.2 hPa | 0 mm | - | 369 W/m² | - |
| 1778096759 | 11.11° C | 43% | 982.2 hPa | 0 mm | - | 369 W/m² | - |
* Rain latest hour (hover to see other rain measurements)
** Current wind speed in m/s (hover to see current wind gust speed)